Marion, IN

2:28 AM EDT on March 24, 2017 (GMT -0400)
Marion Municipal

Weather History for KMZZ - May, 2014

Change the Weather History Date:

Tuesday, May 6, 2014

  Actual Average (KMIE) Record (KMIE)
Temperature  
Mean Temperature 56 °F -  
Max Temperature 70 °F 70 °F 98 °F (2000)
Min Temperature 43 °F 49 °F 33 °F (1970)
Degree Days  
Heating Degree Days 8    
Growing Degree Days 6 (Base 50)    
Moisture  
Dew Point 35 °F    
Average Humidity 43    
Maximum Humidity 69    
Minimum Humidity 28    
Precipitation  
Precipitation 0.00 in - - ()
Sea Level Pressure  
Sea Level Pressure 29.96 in    
Wind  
Wind Speed 13 mph (East)    
Max Wind Speed 18 mph    
Max Gust Speed 29 mph    
Visibility 9 miles    
Events      
Averages and records for this station are not official NWS values.
T = Trace of Precipitation, MM = Missing Value Source: NWS Daily Summary

Daily Weather History Graph

Daily Weather History Graph

Search for Another Location

Airport or City:

Trip Planner

Search our weather history database for the weather conditions in past years. The results will help you decide how hot, cold, wet, or windy it might be!

Date:

Astronomy

May. 06, 2014 Rise Set
Actual Time 6:35 AM EDT 8:43 PM EDT
Civil Twilight 6:05 AM EDT 9:13 PM EDT
Nautical Twilight 5:28 AM EDT 9:50 PM EDT
Astronomical Twilight 4:48 AM EDT 10:31 PM EDT
Moon 12:51 PM EDT (5/6) 2:02 AM EDT (5/6)
Length of Visible Light 15h 08m
Length of Day
14h 07m
Waxing Crescent, 46% of the Moon is Illuminated
May 6
Waxing Crescent
May 6
First Quarter
May 14
Full
May 21
Last Quarter
May 28
New

Hourly Weather History & Observations

Time (EDT) Temp. Windchill Dew Point Humidity Pressure Visibility Wind Dir Wind Speed Gust Speed Precip Events Conditions
12:15 AM 50.0 °F - 35.1 °F 57% 29.94 in 7.0 mi East 12.7 mph - N/A   Clear
12:35 AM 49.6 °F - 35.8 °F 59% 29.94 in 10.0 mi ENE 13.8 mph - N/A   Clear
12:55 AM 48.7 °F - 36.3 °F 62% 29.96 in 10.0 mi East 11.5 mph 16.1 mph N/A   Clear
1:15 AM 48.0 °F - 36.5 °F 64% 29.96 in 10.0 mi ENE 11.5 mph - N/A   Clear
1:35 AM 47.3 °F - 36.3 °F 66% 29.96 in 10.0 mi ENE 10.4 mph 16.1 mph N/A   Clear
1:55 AM 46.4 °F 41.9 °F 36.1 °F 67% 29.96 in 7.0 mi ENE 9.2 mph - N/A   Clear
2:15 AM 45.5 °F 40.3 °F 35.6 °F 68% 29.96 in 10.0 mi ENE 10.4 mph - N/A   Clear
2:35 AM 45.3 °F 41.1 °F 34.9 °F 67% 29.96 in 7.0 mi ENE 8.1 mph - N/A   Clear
2:55 AM 44.6 °F 40.7 °F 34.5 °F 68% 29.96 in 10.0 mi East 6.9 mph - N/A   Clear
3:15 AM 44.2 °F 40.3 °F 34.3 °F 68% 29.96 in 10.0 mi East 6.9 mph - N/A   Clear
3:35 AM 43.9 °F 39.3 °F 34.2 °F 69% 29.95 in 10.0 mi East 8.1 mph - N/A   Clear
7:55 AM 44.1 °F 38.6 °F 32.5 °F 64% 30.00 in 7.0 mi East 10.4 mph - N/A   Clear
8:15 AM 45.5 °F 40.3 °F 32.9 °F 61% 30.00 in 7.0 mi East 10.4 mph - N/A   Clear
8:35 AM 46.9 °F - 32.9 °F 58% 30.00 in 10.0 mi East 13.8 mph 17.3 mph N/A   Clear
8:55 AM 48.0 °F - 33.1 °F 56% 30.00 in 10.0 mi East 11.5 mph 18.4 mph N/A   Clear
9:15 AM 49.3 °F - 33.8 °F 55% 30.00 in 7.0 mi East 11.5 mph - N/A   Clear
10:15 AM 54.0 °F - 34.2 °F 47% 30.01 in 10.0 mi East 13.8 mph 21.9 mph N/A   Clear
10:35 AM 55.6 °F - 34.2 °F 44% 30.00 in 10.0 mi East 17.3 mph 23.0 mph N/A   Clear
10:55 AM 57.6 °F - 34.2 °F 41% 30.00 in 10.0 mi East 18.4 mph 24.2 mph N/A   Clear
11:15 AM 58.3 °F - 33.3 °F 39% 30.00 in 10.0 mi East 18.4 mph 21.9 mph N/A   Clear
11:35 AM 59.4 °F - 32.7 °F 37% 29.99 in 7.0 mi ESE 15.0 mph - N/A   Clear
11:55 AM 60.3 °F - 32.9 °F 36% 30.00 in 7.0 mi East 16.1 mph 21.9 mph N/A   Clear
12:15 PM 61.0 °F - 32.2 °F 34% 29.99 in 10.0 mi East 16.1 mph 23.0 mph N/A   Clear
12:35 PM 61.9 °F - 31.8 °F 32% 29.99 in 10.0 mi ESE 16.1 mph 25.3 mph N/A   Clear
12:55 PM 63.0 °F - 32.0 °F 31% 29.99 in 7.0 mi East 15.0 mph 19.6 mph N/A   Clear
1:15 PM 63.5 °F - 31.6 °F 30% 29.99 in 7.0 mi East 16.1 mph 24.2 mph N/A   Clear
1:35 PM 64.9 °F - 32.0 °F 29% 29.98 in 7.0 mi ESE 17.3 mph 24.2 mph N/A   Clear
1:55 PM 65.3 °F - 32.4 °F 29% 29.98 in 10.0 mi ESE 12.7 mph 21.9 mph N/A   Clear
2:15 PM 66.0 °F - 32.5 °F 29% 29.97 in 10.0 mi East 13.8 mph 23.0 mph N/A   Clear
2:35 PM 66.7 °F - 32.9 °F 28% 29.97 in 10.0 mi East 15.0 mph 24.2 mph N/A   Clear
2:55 PM 67.3 °F - 34.0 °F 29% 29.96 in 10.0 mi East 10.4 mph 19.6 mph N/A   Clear
3:15 PM 68.0 °F - 34.5 °F 29% 29.95 in 7.0 mi East 13.8 mph 25.3 mph N/A   Clear
3:35 PM 68.4 °F - 34.9 °F 29% 29.94 in 7.0 mi East 15.0 mph - N/A   Clear
4:15 PM 69.4 °F - 36.3 °F 30% 29.94 in 10.0 mi East 15.0 mph 21.9 mph N/A   Clear
4:35 PM 69.8 °F - 36.3 °F 29% 29.93 in 10.0 mi East 15.0 mph 21.9 mph N/A   Clear
4:55 PM 70.2 °F - 36.9 °F 30% 29.93 in 10.0 mi East 18.4 mph - N/A   Clear
5:15 PM 70.0 °F - 37.0 °F 30% 29.93 in 10.0 mi East 16.1 mph 21.9 mph N/A   Clear
5:35 PM 69.6 °F - 36.7 °F 30% 29.93 in 10.0 mi East 16.1 mph 23.0 mph N/A   Clear
5:55 PM 69.4 °F - 36.7 °F 30% 29.93 in 10.0 mi East 16.1 mph - N/A   Clear
6:15 PM 69.1 °F - 37.0 °F 31% 29.93 in 7.0 mi East 11.5 mph 23.0 mph N/A   Clear
6:35 PM 68.7 °F - 36.9 °F 31% 29.92 in 7.0 mi East 16.1 mph 23.0 mph N/A   Clear
6:55 PM 68.4 °F - 36.7 °F 31% 29.92 in 7.0 mi East 15.0 mph 19.6 mph N/A   Scattered Clouds
7:15 PM 68.0 °F - 36.7 °F 32% 29.92 in 7.0 mi East 16.1 mph 21.9 mph N/A   Clear
7:35 PM 67.5 °F - 36.3 °F 32% 29.92 in 7.0 mi East 15.0 mph 21.9 mph N/A   Clear
7:55 PM 66.9 °F - 36.3 °F 32% 29.92 in 7.0 mi East 15.0 mph 21.9 mph N/A   Clear
8:15 PM 65.8 °F - 36.5 °F 34% 29.94 in 7.0 mi East 10.4 mph - N/A   Clear
8:35 PM 64.8 °F - 37.0 °F 36% 29.94 in 7.0 mi East 12.7 mph 16.1 mph N/A   Clear
8:55 PM 64.0 °F - 37.6 °F 38% 29.92 in 7.0 mi East 15.0 mph 18.4 mph N/A   Clear
9:15 PM 63.1 °F - 38.3 °F 40% 29.88 in 10.0 mi East 18.4 mph 26.5 mph N/A   Clear
9:35 PM 62.4 °F - 38.5 °F 41% 29.94 in 10.0 mi East 12.7 mph 28.8 mph N/A   Clear
9:55 PM 61.5 °F - 38.8 °F 43% 29.95 in 10.0 mi ENE 12.7 mph 23.0 mph N/A   Clear
10:15 PM 60.4 °F - 38.1 °F 44% 29.95 in 10.0 mi East 15.0 mph - N/A   Clear
10:35 PM 59.4 °F - 37.0 °F 43% 29.94 in 7.0 mi East 17.3 mph - N/A   Clear
10:55 PM 57.9 °F - 36.1 °F 44% 29.94 in 7.0 mi East 15.0 mph 21.9 mph N/A   Clear
11:15 PM 56.8 °F - 35.8 °F 45% 29.94 in 7.0 mi East 13.8 mph - N/A   Clear
11:35 PM 56.1 °F - 35.8 °F 46% 29.94 in 10.0 mi East 13.8 mph 19.6 mph N/A   Scattered Clouds